Location: Coed Ely
(51.5661°N, 3.4150°W)
Time: 20:12:29
(UTC+00:00)

Cosmos 1939 Rocket - Pass Details

Date: 28 January 2021
Orbit: 531 x 585 km, 97.4° (Epoch: 27 February)

Event Time Altitude Azimuth Distance (km) Brightness Sun altitude
Rises 17:26:15 0° 146° (SSE) 2,778 6.3 -5.0°
Reaches altitude 10° 17:28:28 10° 140° (SE) 1,877 5.4 -5.4°
Maximum altitude 17:32:18 42° 69° (ENE) 823 3.3 -5.9°
Drops below altitude 10° 17:36:07 10° 359° (N) 1,861 5.3 -6.5°
Sets 17:38:18 0° 352° (N) 2,752 6.3 -6.8°
